Pond Inlet Airport
CYIO : now visible

Airfield :











YOU CAN JOIN US ON...

 
LOGIN :

Register | Disclaimer

   EN    FR    IT 

 









Legend :    VFR   Marginal VFR   IFR   Intensive IFR   Very Intensive IFR
Visi :
Ceiling :
>= 8 km
>= 3000ft
5 to 8 km
1000 to 3000 ft
1500m to 5 km
500 to 1000 ft
800 to 1500m
200 to 500 ft
< 800m
< 200 ft
Symbols :   Thunderstorms  Fog  Heavy snow  Heavy precipitations  Wind > 20 kt






- Airport Elevation : 181 ft
- IATA code : YIO


CYIO - Pond Inlet

CURRENT METAR :
  • 012100Z 18005KT 35SM FEW280 M28/M32 A3139 RMK CC1 S00 AFT 15UTC/LAST STFD OBS/NEXT 021500 UTC SLP643

EXPIRED METARs :
  • 012000Z 21005KT 35SM FEW280 M28/M32 A3139 RMK CC1 SLP643
  • 011900Z 23005KT 35SM FEW280 M28/M32 A3138 RMK CC1 SLP639

TAF TAF CYIO
Valid from the 01 at 19:00 until the 02 at 07:00 UTC


011838Z 0119/0207 21005KT P6SM FEW280 RMK NXT FCST BY 020100Z



MET'MAP, your aeronautical weather chart ! - Copyright ORBIFLY December 2007 - Disclaimer

ORBIFLY MET'MAP TEAM :

Programming & Development : Alexandra Zaïnal
Concept & original design : Baudouin d'Aumeries
Assistance for programming : Marc-Olivier Méhu
Technical & hardware support : Manuel Goepfert

Contact : metmap@orbifly.com




SOURCES & CREDITS :

   NOAA       Earth
Advisory